Location: Beddau
(51.5575°N, 3.3561°W)
Time: 12:57:29
(UTC+00:00)

Cosmos 2218 Rocket - Pass Details

Date: 03 March 2021
Orbit: 955 x 1007 km, 82.9° (Epoch: 10 April)

Event Time Altitude Azimuth Distance (km) Brightness Sun altitude
Rises 20:33:54 0° 197° (SSW) 3,724 7.0 -24.7°
Reaches altitude 10° 20:36:27 10° 200° (SSW) 2,779 6.3 -25.0°
Maximum altitude 20:42:49 67° 283° (WNW) 1,087 4.3 -25.9°
Drops below altitude 10° 20:49:13 10° 6° (N) 2,787 6.6 -26.8°
Sets 20:51:47 0° 10° (N) 3,735 7.3 -27.2°
